�������l�o���
Date,Time,MP-1(��Sv/h),MP-2(��Sv/h),MP-3(��Sv/h),MP-4(��Sv/h),MP-5(��Sv/h),MP-6(��Sv/h),MP-7(��Sv/h),MP-8(��Sv/h),����,����(m/s),���J
2021/07/03,00:00,0.589,0.860,0.556,1.055,0.755,0.360,0.625,0.586,�k�k��,7.2,�L
2021/07/03,00:10,0.590,0.861,0.559,1.055,0.755,0.359,0.624,0.585,�k�k��,7.5,�L
2021/07/03,00:20,0.591,0.862,0.557,1.057,0.756,0.360,0.622,0.587,�k�k��,7.3,�L
2021/07/03,00:30,0.590,0.862,0.557,1.059,0.754,0.359,0.625,0.585,�k�k��,7.0,�L
2021/07/03,00:40,0.592,0.863,0.556,1.058,0.756,0.360,0.624,0.586,�k�k��,6.0,�L
2021/07/03,00:50,0.590,0.862,0.558,1.059,0.758,0.360,0.624,0.586,�k�k��,6.8,�L
2021/07/03,01:00,0.592,0.863,0.559,1.061,0.757,0.360,0.625,0.586,�k�k��,6.3,�L
2021/07/03,01:10,0.591,0.865,0.560,1.060,0.759,0.359,0.625,0.586,�k�k��,6.4,�L
2021/07/03,01:20,0.591,0.863,0.561,1.060,0.758,0.360,0.624,0.587,�k,6.2,�L
2021/07/03,01:30,0.591,0.864,0.561,1.061,0.758,0.362,0.624,0.588,�k,5.7,�L
2021/07/03,01:40,0.591,0.861,0.559,1.059,0.757,0.362,0.624,0.586,�k,4.9,�L
2021/07/03,01:50,0.591,0.860,0.558,1.058,0.757,0.361,0.625,0.586,�k,5.8,�L
2021/07/03,02:00,0.591,0.863,0.560,1.058,0.753,0.360,0.624,0.587,�k�k��,6.4,�L
2021/07/03,02:10,0.591,0.862,0.558,1.058,0.754,0.361,0.625,0.586,�k�k��,5.0,�L
2021/07/03,02:20,0.593,0.861,0.557,1.058,0.756,0.360,0.626,0.585,�k�k��,4.8,�L
2021/07/03,02:30,0.591,0.862,0.558,1.058,0.755,0.360,0.625,0.586,�k�k��,4.2,�L
2021/07/03,02:40,0.591,0.861,0.558,1.058,0.757,0.361,0.624,0.586,�k,5.3,�L
2021/07/03,02:50,0.591,0.862,0.559,1.058,0.756,0.361,0.624,0.586,�k,4.9,�L
2021/07/03,03:00,0.592,0.862,0.560,1.057,0.757,0.361,0.623,0.585,�k,3.5,�L
2021/07/03,03:10,0.591,0.862,0.559,1.059,0.758,0.361,0.624,0.586,�k�k��,4.9,�L
2021/07/03,03:20,0.591,0.863,0.561,1.063,0.757,0.362,0.624,0.585,�k�k��,4.6,�L
2021/07/03,03:30,0.592,0.863,0.560,1.061,0.757,0.360,0.623,0.586,�k�k��,5.0,�L
2021/07/03,03:40,0.592,0.864,0.560,1.060,0.757,0.361,0.624,0.588,�k�k��,5.2,�L
2021/07/03,03:50,0.591,0.863,0.561,1.059,0.757,0.362,0.626,0.585,�k�k��,4.9,�L
2021/07/03,04:00,0.592,0.862,0.558,1.060,0.757,0.362,0.624,0.589,�k�k��,5.4,�L
2021/07/03,04:10,0.590,0.861,0.560,1.058,0.755,0.361,0.625,0.589,�k,5.0,�L
2021/07/03,04:20,0.589,0.863,0.559,1.057,0.755,0.360,0.625,0.588,�k�k��,5.6,�L
2021/07/03,04:30,0.591,0.862,0.560,1.059,0.755,0.360,0.624,0.587,�k,5.3,�L
2021/07/03,04:40,0.590,0.863,0.559,1.060,0.755,0.360,0.623,0.587,�k,5.2,�L
2021/07/03,04:50,0.591,0.863,0.559,1.060,0.757,0.361,0.623,0.589,�k�k��,4.6,�L
2021/07/03,05:00,0.592,0.863,0.561,1.056,0.755,0.361,0.624,0.587,�k,4.6,��
2021/07/03,05:10,0.590,0.863,0.559,1.058,0.756,0.358,0.624,0.587,�k,3.9,�L
2021/07/03,05:20,0.592,0.863,0.559,1.060,0.758,0.361,0.624,0.587,�k,3.8,�L
2021/07/03,05:30,0.591,0.863,0.561,1.059,0.757,0.360,0.625,0.586,�k,3.9,�L
2021/07/03,05:40,0.592,0.863,0.561,1.060,0.756,0.360,0.624,0.587,�k,2.8,��
2021/07/03,05:50,0.591,0.866,0.560,1.058,0.757,0.361,0.625,0.590,�k,2.9,��
2021/07/03,06:00,0.592,0.866,0.560,1.061,0.759,0.361,0.625,0.590,�k,3.7,��
2021/07/03,06:10,0.593,0.866,0.561,1.059,0.759,0.361,0.624,0.588,�k,3.2,��
2021/07/03,06:20,0.594,0.868,0.560,1.059,0.758,0.361,0.623,0.589,�k,4.2,��
2021/07/03,06:30,0.594,0.867,0.560,1.060,0.758,0.361,0.626,0.589,�k,3.9,��
2021/07/03,06:40,0.593,0.868,0.561,1.060,0.758,0.362,0.624,0.589,�k,3.2,��
2021/07/03,06:50,0.592,0.867,0.562,1.060,0.757,0.359,0.624,0.589,�k,3.2,��
2021/07/03,07:00,0.592,0.866,0.562,1.061,0.758,0.361,0.625,0.586,�k,2.9,��
2021/07/03,07:10,0.591,0.865,0.561,1.063,0.760,0.360,0.625,0.589,�k,2.6,��
2021/07/03,07:20,0.593,0.869,0.562,1.062,0.761,0.360,0.626,0.587,�k�k��,2.3,��
2021/07/03,07:30,0.593,0.865,0.561,1.060,0.759,0.361,0.625,0.588,�k,2.9,��
2021/07/03,07:40,0.593,0.866,0.561,1.062,0.759,0.359,0.626,0.587,�k�k��,3.7,��
2021/07/03,07:50,0.593,0.867,0.561,1.061,0.758,0.361,0.626,0.588,�k�k��,4.1,��
2021/07/03,08:00,0.594,0.869,0.561,1.061,0.759,0.360,0.627,0.588,�k�k��,2.6,��
2021/07/03,08:10,0.594,0.868,0.560,1.061,0.761,0.361,0.626,0.586,�k��,3.6,�L
2021/07/03,08:20,0.594,0.866,0.561,1.063,0.761,0.361,0.628,0.587,�k��,3.9,��
2021/07/03,08:30,0.595,0.869,0.561,1.063,0.761,0.362,0.629,0.588,�k��,3.6,��
2021/07/03,08:40,0.596,0.870,0.560,1.064,0.761,0.360,0.629,0.586,�k�k��,4.0,��
2021/07/03,08:50,0.594,0.870,0.562,1.063,0.759,0.361,0.628,0.586,�k��,3.9,��
2021/07/03,09:00,0.594,0.872,0.562,1.063,0.760,0.361,0.627,0.589,�k�k��,3.5,��
2021/07/03,09:10,0.596,0.873,0.561,1.062,0.761,0.359,0.626,0.587,�k��,3.4,��
2021/07/03,09:20,0.596,0.871,0.561,1.065,0.761,0.361,0.627,0.588,�k��,3.6,��
2021/07/03,09:30,0.595,0.871,0.560,1.063,0.762,0.361,0.626,0.589,�k�k��,3.8,��
2021/07/03,09:40,0.596,0.873,0.562,1.064,0.760,0.361,0.629,0.588,�k��,3.3,��
2021/07/03,09:50,0.596,0.872,0.563,1.062,0.763,0.361,0.628,0.587,�k��,3.0,��
2021/07/03,10:00,0.596,0.873,0.563,1.063,0.763,0.361,0.630,0.589,�k��,3.2,��
2021/07/03,10:10,0.599,0.871,0.563,1.065,0.763,0.361,0.629,0.587,���k��,2.2,��
2021/07/03,10:20,0.598,0.872,0.564,1.062,0.764,0.362,0.628,0.589,�k��,2.5,��
2021/07/03,10:30,0.597,0.873,0.563,1.062,0.763,0.362,0.630,0.587,�k��,2.6,��
2021/07/03,10:40,0.597,0.875,0.564,1.061,0.764,0.362,0.629,0.588,���k��,3.4,��
2021/07/03,10:50,0.597,0.876,0.563,1.066,0.764,0.360,0.629,0.589,�k��,2.3,��
2021/07/03,11:00,0.598,0.873,0.564,1.063,0.764,0.360,0.629,0.587,�k�k��,3.2,��
2021/07/03,11:10,0.598,0.875,0.565,1.066,0.763,0.362,0.629,0.589,�k�k��,3.4,��
2021/07/03,11:20,0.599,0.876,0.564,1.064,0.764,0.361,0.628,0.590,�k��,2.6,��
2021/07/03,11:30,0.597,0.876,0.564,1.065,0.765,0.361,0.629,0.589,�k�k��,3.1,��
2021/07/03,11:40,0.598,0.874,0.565,1.067,0.765,0.362,0.630,0.588,�k�k��,3.1,��
2021/07/03,11:50,0.599,0.876,0.564,1.068,0.766,0.363,0.630,0.588,�k�k��,2.8,��
2021/07/03,12:00,0.598,0.877,0.565,1.066,0.766,0.363,0.631,0.588,�k�k��,3.6,��
2021/07/03,12:10,0.599,0.875,0.564,1.066,0.766,0.361,0.630,0.588,�k�k��,3.8,��
2021/07/03,12:20,0.600,0.877,0.565,1.067,0.767,0.362,0.628,0.589,�k�k��,4.4,��
2021/07/03,12:30,0.598,0.876,0.565,1.068,0.766,0.363,0.630,0.589,�k�k��,5.2,��
2021/07/03,12:40,0.599,0.879,0.566,1.067,0.766,0.363,0.630,0.589,�k�k��,5.2,��
2021/07/03,12:50,0.598,0.877,0.566,1.069,0.767,0.363,0.631,0.590,�k�k��,4.7,��
2021/07/03,13:00,0.599,0.877,0.567,1.066,0.768,0.362,0.630,0.588,�k,5.1,��
2021/07/03,13:10,0.600,0.876,0.566,1.069,0.765,0.362,0.630,0.590,�k�k��,4.1,��
2021/07/03,13:20,0.601,0.878,0.566,1.069,0.768,0.363,0.633,0.591,�k�k��,4.6,��
2021/07/03,13:30,0.599,0.878,0.567,1.071,0.768,0.364,0.630,0.589,�k�k��,5.7,��
2021/07/03,13:40,0.602,0.880,0.566,1.067,0.767,0.362,0.630,0.590,�k�k��,4.2,��
2021/07/03,13:50,0.601,0.877,0.567,1.069,0.767,0.363,0.629,0.589,�k,4.7,��
2021/07/03,14:00,0.601,0.877,0.565,1.067,0.768,0.362,0.632,0.590,�k�k��,5.6,��
2021/07/03,14:10,0.602,0.881,0.568,1.070,0.768,0.362,0.631,0.590,�k,5.6,��
2021/07/03,14:20,0.601,0.879,0.565,1.072,0.769,0.361,0.632,0.590,�k,5.0,��
2021/07/03,14:30,0.600,0.880,0.566,1.071,0.770,0.362,0.631,0.588,�k�k��,4.7,��
2021/07/03,14:40,0.600,0.880,0.568,1.070,0.770,0.365,0.632,0.588,�k�k��,4.5,��
2021/07/03,14:50,0.601,0.880,0.566,1.071,0.770,0.363,0.632,0.589,�k�k��,5.0,��
2021/07/03,15:00,0.600,0.883,0.567,1.071,0.769,0.361,0.631,0.590,�k�k��,3.8,��
2021/07/03,15:10,0.601,0.881,0.566,1.070,0.771,0.362,0.631,0.588,�k�k��,4.3,��
2021/07/03,15:20,0.601,0.883,0.566,1.075,0.771,0.363,0.630,0.589,�k,3.6,��
2021/07/03,15:30,0.599,0.882,0.569,1.072,0.770,0.362,0.630,0.589,�k�k��,3.5,��
2021/07/03,15:40,0.600,0.882,0.569,1.074,0.771,0.363,0.631,0.589,�k�k��,3.5,��
2021/07/03,15:50,0.601,0.881,0.566,1.073,0.770,0.362,0.630,0.590,�k�k��,3.8,��
2021/07/03,16:00,0.602,0.884,0.568,1.074,0.771,0.363,0.633,0.590,�k�k��,3.9,��
2021/07/03,16:10,0.600,0.882,0.566,1.075,0.770,0.363,0.630,0.590,�k�k��,3.1,��
2021/07/03,16:20,0.600,0.882,0.568,1.074,0.770,0.362,0.632,0.589,�k�k��,3.2,��
2021/07/03,16:30,0.600,0.882,0.567,1.074,0.771,0.362,0.630,0.590,�k,4.3,��
2021/07/03,16:40,0.601,0.880,0.566,1.073,0.768,0.363,0.632,0.588,�k,3.6,��
2021/07/03,16:50,0.599,0.883,0.567,1.076,0.770,0.364,0.631,0.590,�k,3.5,��
2021/07/03,17:00,0.601,0.883,0.568,1.074,0.771,0.362,0.631,0.589,�k,3.9,��
2021/07/03,17:10,0.601,0.882,0.567,1.074,0.771,0.363,0.631,0.589,�k,4.5,��
2021/07/03,17:20,0.600,0.882,0.567,1.074,0.770,0.362,0.630,0.590,�k,4.3,��
2021/07/03,17:30,0.600,0.882,0.567,1.076,0.772,0.362,0.632,0.590,�k,4.4,��
2021/07/03,17:40,0.602,0.882,0.567,1.076,0.773,0.362,0.632,0.590,�k,4.6,��
2021/07/03,17:50,0.600,0.881,0.568,1.075,0.768,0.363,0.630,0.591,�k,4.0,��
2021/07/03,18:00,0.600,0.885,0.569,1.073,0.771,0.362,0.632,0.590,�k,4.1,��
2021/07/03,18:10,0.600,0.882,0.570,1.078,0.771,0.362,0.631,0.590,�k�k��,3.7,��
2021/07/03,18:20,0.601,0.883,0.568,1.077,0.771,0.362,0.633,0.592,�k,4.9,��
2021/07/03,18:30,0.600,0.884,0.569,1.075,0.770,0.362,0.630,0.591,�k�k��,4.5,��
2021/07/03,18:40,0.601,0.885,0.568,1.076,0.771,0.363,0.632,0.590,�k,4.4,��
2021/07/03,18:50,0.601,0.884,0.570,1.074,0.771,0.362,0.631,0.591,�k,4.3,��
2021/07/03,19:00,0.602,0.885,0.570,1.077,0.771,0.361,0.631,0.590,�k,4.2,��
2021/07/03,19:10,0.601,0.882,0.569,1.076,0.771,0.362,0.632,0.590,�k,4.7,��
2021/07/03,19:20,0.603,0.882,0.570,1.078,0.769,0.361,0.632,0.591,�k,4.6,��
2021/07/03,19:30,0.602,0.884,0.570,1.077,0.772,0.362,0.632,0.590,�k,4.7,�L
2021/07/03,19:40,0.601,0.884,0.568,1.077,0.772,0.362,0.629,0.592,�k,5.1,�L
2021/07/03,19:50,0.602,0.887,0.571,1.076,0.772,0.362,0.631,0.591,�k,4.0,�L
2021/07/03,20:00,0.603,0.884,0.570,1.077,0.772,0.363,0.631,0.592,�k�k��,4.4,�L
2021/07/03,20:10,0.600,0.885,0.571,1.077,0.775,0.363,0.631,0.591,�k,4.1,�L
2021/07/03,20:20,0.600,0.886,0.571,1.078,0.774,0.362,0.632,0.593,�k�k��,3.6,�L
2021/07/03,20:30,0.599,0.885,0.569,1.076,0.773,0.362,0.629,0.592,�k,3.8,�L
2021/07/03,20:40,0.600,0.883,0.571,1.077,0.772,0.363,0.630,0.592,�k�k��,5.4,�L
2021/07/03,20:50,0.600,0.883,0.570,1.077,0.771,0.362,0.632,0.591,�k�k��,5.0,�L
2021/07/03,21:00,0.601,0.881,0.570,1.078,0.770,0.364,0.631,0.591,�k�k��,4.8,�L
2021/07/03,21:10,0.601,0.883,0.569,1.077,0.770,0.364,0.630,0.593,�k�k��,5.3,��
2021/07/03,21:20,0.600,0.881,0.568,1.077,0.769,0.364,0.632,0.593,�k�k��,5.5,��
2021/07/03,21:30,0.601,0.883,0.569,1.079,0.769,0.363,0.630,0.593,�k�k��,5.4,�L
2021/07/03,21:40,0.601,0.886,0.571,1.077,0.769,0.363,0.630,0.592,�k�k��,5.1,��
2021/07/03,21:50,0.601,0.887,0.570,1.075,0.771,0.363,0.630,0.592,�k�k��,4.5,��
2021/07/03,22:00,0.601,0.884,0.568,1.077,0.769,0.363,0.632,0.592,�k,4.7,�L
2021/07/03,22:10,0.600,0.886,0.570,1.076,0.770,0.361,0.630,0.593,�k,4.4,��
2021/07/03,22:20,0.601,0.883,0.569,1.077,0.771,0.363,0.631,0.594,�k�k��,5.0,�L
2021/07/03,22:30,0.602,0.885,0.569,1.076,0.772,0.364,0.630,0.592,�k,4.1,��
2021/07/03,22:40,0.600,0.885,0.570,1.078,0.770,0.364,0.630,0.592,�k,3.6,��
2021/07/03,22:50,0.602,0.885,0.568,1.077,0.771,0.364,0.631,0.594,�k,4.3,�L
2021/07/03,23:00,0.601,0.885,0.569,1.078,0.770,0.362,0.631,0.593,�k,4.1,��
2021/07/03,23:10,0.601,0.889,0.571,1.077,0.772,0.362,0.632,0.593,�k�k��,3.9,��
2021/07/03,23:20,0.602,0.884,0.570,1.077,0.772,0.363,0.631,0.593,�k�k��,5.1,��
2021/07/03,23:30,0.601,0.888,0.568,1.077,0.773,0.363,0.629,0.592,�k�k��,4.6,��
2021/07/03,23:40,0.601,0.886,0.570,1.078,0.770,0.363,0.632,0.592,�k,4.6,��
2021/07/03,23:50,0.602,0.886,0.572,1.078,0.773,0.363,0.631,0.594,�k,3.8,��
